Total_Precipitation_Accumulation
0.00 0.00 0.00 0.00 0.00 0.00 0.00 0.00 0.00 0.00 0.00 0.00 0.00 0.00 0.00 0.01 0.02 0.03 0.05 0.14 0.23 0.28 0.41 0.52 0.52 0.46 0.45 0.45 0.48 0.60 0.82 1.08 1.38 1.35 1.14 1.08 1.03 0.97 0.87 0.78 0.75 0.80 0.83 0.93
0.00 0.00 0.00 0.00 0.00 0.00 0.00 0.00 0.00 0.00 0.00 0.00 0.00 0.00 0.01 0.02 0.04 0.06 0.07 0.09 0.20 0.37 0.53 0.67 0.69 0.62 0.65 0.87 1.09 1.24 1.42 1.80 1.94 1.80 1.73 1.71 1.71 1.53 1.49 1.38 1.23 1.05 0.96 1.02
0.00 0.00 0.00 0.00 0.00 0.00 0.00 0.00 0.00 0.00 0.00 0.00 0.00 0.00 0.01 0.06 0.10 0.15 0.17 0.20 0.23 0.29 0.35 0.44 0.49 0.55 0.64 0.83 1.03 1.30 1.65 1.99 2.14 2.19 2.23 2.16 2.15 1.91 1.81 1.68 1.53 1.33 1.18 1.12
0.00 0.00 0.00 0.00 0.00 0.00 0.00 0.00 0.00 0.00 0.00 0.00 0.00 0.00 0.00 0.03 0.06 0.12 0.18 0.24 0.29 0.37 0.41 0.44 0.47 0.50 0.58 0.65 0.87 1.20 1.53 1.82 2.01 2.16 2.21 2.24 2.24 2.12 2.07 1.95 1.66 1.41 1.26 1.26
0.00 0.00 0.00 0.00 0.00 0.00 0.00 0.00 0.00 0.00 0.00 0.00 0.00 0.00 0.00 0.01 0.04 0.08 0.15 0.22 0.31 0.39 0.44 0.51 0.59 0.68 0.74 0.84 1.02 1.22 1.41 1.63 1.79 1.87 1.91 1.96 1.91 1.87 1.83 1.69 1.46 1.31 1.25 1.22
0.00 0.01 0.01 0.00 0.00 0.00 0.00 0.00 0.00 0.00 0.00 0.00 0.01 0.01 0.01 0.02 0.04 0.07 0.16 0.23 0.33 0.43 0.53 0.65 0.71 0.79 0.85 0.99 1.15 1.30 1.41 1.59 1.71 1.61 1.50 1.49 1.51 1.54 1.47 1.37 1.27 1.16 1.10 1.05
0.00 0.00 0.01 0.01 0.01 0.01 0.00 0.02 0.05 0.03 0.01 0.01 0.01 0.02 0.03 0.05 0.05 0.10 0.20 0.25 0.30 0.37 0.45 0.54 0.68 0.88 0.96 0.97 1.00 1.19 1.44 1.68 1.68 1.50 1.32 1.25 1.24 1.29 1.29 1.24 1.19 1.13 1.05 0.98
0.00 0.00 0.02 0.03 0.04 0.04 0.04 0.06 0.16 0.13 0.04 0.02 0.01 0.02 0.09 0.09 0.14 0.18 0.23 0.26 0.26 0.24 0.22 0.22 0.25 0.34 0.39 0.41 0.41 0.49 0.62 0.79 0.85 0.83 0.80 0.80 0.85 0.94 1.00 1.05 1.06 1.08 1.04 0.96
0.00 0.00 0.02 0.05 0.09 0.09 0.14 0.15 0.12 0.24 0.21 0.17 0.04 0.03 0.11 0.13 0.20 0.25 0.26 0.24 0.20 0.18 0.15 0.16 0.18 0.20 0.23 0.26 0.32 0.41 0.49 0.54 0.55 0.52 0.48 0.49 0.53 0.63 0.72 0.80 0.86 0.93 0.93 0.89
0.01 0.01 0.01 0.02 0.05 0.07 0.09 0.14 0.28 0.45 0.43 0.29 0.12 0.10 0.23 0.33 0.34 0.37 0.38 0.34 0.27 0.21 0.20 0.21 0.23 0.26 0.33 0.43 0.52 0.58 0.58 0.53 0.47 0.44 0.43 0.40 0.43 0.46 0.51 0.56 0.59 0.62 0.66 0.69
0.01 0.01 0.02 0.08 0.11 0.10 0.10 0.16 0.30 0.43 0.44 0.42 0.33 0.27 0.23 0.31 0.44 0.57 0.59 0.49 0.35 0.28 0.25 0.25 0.24 0.28 0.33 0.42 0.49 0.56 0.57 0.54 0.51 0.47 0.47 0.45 0.43 0.42 0.42 0.44 0.45 0.49 0.51 0.52
0.01 0.02 0.03 0.05 0.04 0.03 0.07 0.15 0.28 0.44 0.48 0.48 0.45 0.34 0.16 0.18 0.30 0.41 0.43 0.35 0.27 0.24 0.23 0.22 0.22 0.23 0.26 0.33 0.40 0.44 0.46 0.50 0.50 0.45 0.45 0.46 0.42 0.39 0.38 0.38 0.37 0.39 0.42 0.44
0.01 0.02 0.02 0.02 0.05 0.06 0.09 0.10 0.17 0.27 0.36 0.39 0.40 0.36 0.22 0.25 0.33 0.38 0.40 0.36 0.29 0.25 0.25 0.24 0.22 0.23 0.25 0.31 0.38 0.42 0.42 0.46 0.48 0.45 0.45 0.42 0.42 0.42 0.38 0.32 0.29 0.29 0.31 0.36
0.00 0.00 0.01 0.02 0.03 0.03 0.05 0.06 0.10 0.19 0.28 0.24 0.19 0.20 0.25 0.30 0.35 0.37 0.35 0.31 0.25 0.22 0.22 0.22 0.23 0.26 0.26 0.26 0.28 0.33 0.41 0.49 0.45 0.42 0.40 0.38 0.36 0.36 0.37 0.34 0.29 0.26 0.25 0.27
0.00 0.00 0.01 0.01 0.01 0.02 0.02 0.03 0.06 0.11 0.13 0.18 0.16 0.21 0.29 0.33 0.31 0.29 0.29 0.26 0.21 0.19 0.18 0.17 0.17 0.17 0.19 0.21 0.24 0.28 0.29 0.37 0.42 0.43 0.40 0.38 0.37 0.34 0.31 0.28 0.24 0.21 0.18 0.17
0.00 0.00 0.01 0.05 0.09 0.09 0.08 0.07 0.08 0.09 0.09 0.12 0.15 0.22 0.25 0.24 0.24 0.25 0.25 0.23 0.21 0.16 0.13 0.11 0.10 0.10 0.11 0.13 0.16 0.20 0.21 0.26 0.32 0.33 0.32 0.34 0.34 0.33 0.32 0.25 0.20 0.16 0.13 0.12
0.00 0.00 0.01 0.05 0.15 0.15 0.13 0.08 0.10 0.12 0.12 0.20 0.32 0.34 0.27 0.26 0.22 0.18 0.15 0.13 0.10 0.08 0.07 0.06 0.05 0.06 0.07 0.06 0.08 0.15 0.19 0.20 0.23 0.25 0.27 0.29 0.32 0.33 0.31 0.21 0.17 0.13 0.10 0.09
0.00 0.00 0.02 0.06 0.14 0.14 0.09 0.02 0.03 0.06 0.06 0.08 0.14 0.16 0.15 0.16 0.13 0.08 0.05 0.03 0.03 0.03 0.02 0.02 0.02 0.02 0.02 0.03 0.06 0.12 0.18 0.21 0.23 0.27 0.30 0.31 0.29 0.31 0.29 0.22 0.17 0.14 0.11 0.10
0.00 0.00 0.01 0.04 0.06 0.07 0.02 0.02 0.03 0.06 0.06 0.02 0.03 0.04 0.02 0.02 0.02 0.03 0.01 0.01 0.01 0.01 0.01 0.01 0.01 0.01 0.02 0.04 0.08 0.14 0.18 0.23 0.27 0.31 0.33 0.32 0.29 0.28 0.27 0.25 0.22 0.20 0.18 0.14
0.00 0.00 0.01 0.02 0.04 0.06 0.02 0.01 0.02 0.03 0.09 0.02 0.01 0.01 0.01 0.01 0.05 0.07 0.02 0.00 0.00 0.00 0.00 0.01 0.01 0.03 0.06 0.08 0.12 0.19 0.22 0.27 0.30 0.28 0.27 0.23 0.24 0.27 0.28 0.28 0.26 0.24 0.22 0.16
0.00 0.00 0.01 0.02 0.04 0.03 0.01 0.01 0.02 0.09 0.16 0.02 0.00 0.00 0.00 0.01 0.04 0.03 0.01 0.00 0.00 0.00 0.01 0.02 0.03 0.07 0.13 0.12 0.16 0.21 0.23 0.26 0.26 0.27 0.26 0.24 0.23 0.25 0.27 0.30 0.28 0.27 0.22 0.17
0.00 0.01 0.01 0.02 0.05 0.05 0.01 0.01 0.02 0.04 0.03 0.01 0.00 0.01 0.01 0.01 0.01 0.01 0.01 0.01 0.01 0.02 0.02 0.03 0.06 0.11 0.17 0.18 0.22 0.24 0.24 0.25 0.27 0.29 0.27 0.26 0.26 0.17 0.17 0.26 0.28 0.28 0.24 0.17
0.00 0.01 0.02 0.03 0.04 0.02 0.00 0.01 0.01 0.01 0.02 0.02 0.02 0.01 0.01 0.01 0.01 0.01 0.01 0.02 0.02 0.03 0.04 0.06 0.09 0.13 0.16 0.20 0.30 0.36 0.35 0.34 0.35 0.37 0.37 0.34 0.29 0.24 0.23 0.24 0.24 0.22 0.19 0.17
0.00 0.01 0.02 0.03 0.02 0.01 0.01 0.01 0.01 0.01 0.01 0.01 0.01 0.01 0.01 0.01 0.02 0.02 0.03 0.02 0.03 0.03 0.04 0.06 0.09 0.14 0.19 0.24 0.32 0.39 0.41 0.38 0.38 0.41 0.41 0.42 0.40 0.35 0.32 0.31 0.27 0.20 0.17 0.16
0.00 0.00 0.02 0.05 0.03 0.02 0.02 0.01 0.01 0.00 0.00 0.00 0.01 0.01 0.01 0.02 0.02 0.02 0.02 0.02 0.03 0.03 0.04 0.06 0.10 0.16 0.20 0.23 0.30 0.34 0.38 0.39 0.43 0.44 0.40 0.41 0.43 0.42 0.39 0.35 0.31 0.26 0.24 0.17
0.01 0.02 0.04 0.06 0.04 0.04 0.03 0.01 0.01 0.01 0.01 0.01 0.01 0.01 0.01 0.02 0.02 0.02 0.02 0.03 0.04 0.05 0.06 0.09 0.12 0.16 0.19 0.23 0.29 0.34 0.39 0.42 0.47 0.47 0.44 0.41 0.37 0.35 0.31 0.30 0.18 0.11 0.11 0.06